Regional Weather Roundup
Issued by NWS

Home | Current Version | Previous Version | Graphics & Text | Print | Product List | Glossary On
Versions: 1 2 3 4 5 6 7 8 9 10 11 12 13 14 15 16 17 18 19 20 21 22 23 24 25 26 27 28 29 30 31 32 33 34 35 36 37 38 39 40 41 42 43 44 45 46 47 48 49 50
335
ASUS44 KJAN 211303
RWRMS

MISSISSIPPI HOURLY WEATHER ROUNDUP
NATIONAL WEATHER SERVICE JACKSON MS
800 AM CDT TUE OCT 21 2014

NOTE: "FAIR: INDICATES FEW OR NO CLOUDS BELOW 12,000 FEET WITH NO
SIGNIFICANT WEATHER AND/OR OBSTRUCTIONS TO VISIBILITY.

MSZ001>002-007>008-010>013-018>021-025>028-034>036-211400-
NORTHWEST MISSISSIPPI

CITY           SKY/WX    TMP DP  RH WIND       PRES   REMARKS
CLARKSDALE     FAIR      54  54 100 CALM      30.09R
CLEVELAND      PTSUNNY   55  55 100 CALM      30.08R
GREENWOOD      CLEAR     51  48  89 CALM      30.08R
GREENVILLE     PTCLDY    55  53  93 CALM      30.08R
GRENADA          N/A    N/A N/A N/A MISG        N/A
OLIVE BRANCH   CLEAR     52  52 100 CALM      30.08R
OXFORD         FAIR      48  46  93 CALM      30.09R
TUNICA         FOG       48  48 100 CALM      30.08S VSB 1/4
$$

MSZ003>006-009-014>017-022>024-029>033-037>039-211400-
NORTHEAST MISSISSIPPI

CITY           SKY/WX    TMP DP  RH WIND       PRES   REMARKS
COLUMBUS AFB   MOSUNNY   48  48 100 CALM      30.07R
CORINTH          N/A    N/A N/A N/A MISG        N/A
GOLDN TRIANGLE SUNNY     50  45  81 NW5       30.07R
STARKVILLE     FAIR      46  46 100 CALM      30.08R
TUPELO         CLEAR     52  49  89 CALM      30.07R
$$

MSZ040-058-211400-
CENTRAL MISSISSIPPI

CITY           SKY/WX    TMP DP  RH WIND       PRES   REMARKS
JACKSON INTL   CLEAR     51  49  92 CALM      30.09R
JACKSON HAWKNS CLEAR     53  49  86 CALM      30.09R
MERIDIAN KEY   SUNNY     50  47  89 CALM      30.09R
MERIDIAN NAS   SUNNY     50  47  89 CALM      30.09R
RAYMOND        FAIR      48  43  81 MISG      30.09R HAZE
VICKSBURG      PTCLDY    52  51  97 CALM      30.09R
$$

MSZ059>079-211400-
SOUTH MISSISSIPPI

CITY           SKY/WX    TMP DP  RH WIND       PRES   REMARKS
BROOKHAVEN     FAIR      48  48 100 CALM      30.09S
COLUMBIA         N/A    N/A N/A N/A MISG        N/A
HATTIESBURG    SUNNY     52  50  93 CALM      30.09R
MCCOMB         CLEAR     58  48  69 NE5       30.08R
NATCHEZ        CLEAR     52  48  87 CALM      30.08S
PINE BELT      SUNNY     54  48  82 CALM      30.09R
$$

MSZ080>082-211400-
COASTAL MISSISSIPPI

CITY           SKY/WX    TMP DP  RH WIND       PRES   REMARKS
BAY ST LOUIS   SUNNY     54  50  87 CALM      30.04S
BILOXI         SUNNY     57  51  82 N5        30.05R
PASCAGOULA     SUNNY     53  51  93 CALM      30.05R
GULFPORT       SUNNY     58  51  78 N5        30.05R
$$



USA.gov is the U.S. government's official web portal to all federal, state and local government web resources and services.